TimeCDT,TemperatureF,Dew PointF,Humidity,Sea Level PressureIn,VisibilityMPH,Wind Direction,Wind SpeedMPH,Gust SpeedMPH,PrecipitationIn,Events,Conditions,WindDirDegrees,DateUTC
12:15 AM,57.2,42.8,59,29.85,10.0,South,6.9,-,N/A,,Clear,170,2012-10-21 05:15:00
12:35 AM,57.2,42.8,59,29.84,10.0,SSE,8.1,-,N/A,,Clear,160,2012-10-21 05:35:00
12:55 AM,57.2,42.8,59,29.84,10.0,South,9.2,-,N/A,,Clear,170,2012-10-21 05:55:00
1:15 AM,57.2,42.8,59,29.84,10.0,South,8.1,-,N/A,,Clear,170,2012-10-21 06:15:00
1:35 AM,57.2,42.8,59,29.84,10.0,South,5.8,-,N/A,,Clear,180,2012-10-21 06:35:00
1:55 AM,57.2,42.8,59,29.84,10.0,South,6.9,-,N/A,,Clear,170,2012-10-21 06:55:00
2:15 AM,57.2,42.8,59,29.85,10.0,South,5.8,-,N/A,,Clear,170,2012-10-21 07:15:00
2:35 AM,57.2,42.8,59,29.86,10.0,SSE,5.8,-,N/A,,Clear,160,2012-10-21 07:35:00
2:55 AM,57.2,42.8,59,29.86,10.0,SSE,6.9,-,N/A,,Clear,160,2012-10-21 07:55:00
3:15 AM,55.4,42.8,63,29.86,10.0,SSE,5.8,-,N/A,,Clear,160,2012-10-21 08:15:00
3:35 AM,55.4,42.8,63,29.86,10.0,SSE,4.6,-,N/A,,Clear,160,2012-10-21 08:35:00
3:55 AM,55.4,42.8,63,29.86,10.0,SSE,4.6,-,N/A,,Clear,160,2012-10-21 08:55:00
4:15 AM,55.4,42.8,63,29.87,10.0,SSE,4.6,-,N/A,,Clear,160,2012-10-21 09:15:00
4:35 AM,55.4,42.8,63,29.87,10.0,SSE,5.8,-,N/A,,Clear,160,2012-10-21 09:35:00
4:55 AM,55.4,42.8,63,29.87,10.0,SSE,4.6,-,N/A,,Clear,160,2012-10-21 09:55:00
5:15 AM,55.4,44.6,67,29.87,10.0,South,5.8,-,N/A,,Clear,170,2012-10-21 10:15:00
5:35 AM,55.4,44.6,67,29.88,10.0,South,6.9,-,N/A,,Clear,170,2012-10-21 10:35:00
5:55 AM,57.2,44.6,63,29.87,10.0,SSE,5.8,-,N/A,,Clear,160,2012-10-21 10:55:00
6:15 AM,55.4,44.6,67,29.88,10.0,SSE,5.8,-,N/A,,Clear,160,2012-10-21 11:15:00
6:35 AM,55.4,44.6,67,29.88,10.0,SSE,5.8,-,N/A,,Clear,160,2012-10-21 11:35:00
6:55 AM,55.4,44.6,67,29.89,10.0,SSE,6.9,-,N/A,,Clear,160,2012-10-21 11:55:00
7:15 AM,55.4,44.6,67,29.89,10.0,SSE,5.8,-,N/A,,Clear,160,2012-10-21 12:15:00
7:35 AM,57.2,44.6,63,29.89,10.0,SSE,5.8,-,N/A,,Clear,160,2012-10-21 12:35:00
7:55 AM,57.2,44.6,63,29.89,10.0,SSE,5.8,-,N/A,,Clear,150,2012-10-21 12:55:00
8:15 AM,57.2,44.6,63,29.90,10.0,SSE,6.9,-,N/A,,Clear,150,2012-10-21 13:15:00
8:35 AM,59.0,44.6,59,29.91,10.0,SSE,6.9,-,N/A,,Clear,160,2012-10-21 13:35:00
8:55 AM,60.8,46.4,59,29.91,10.0,SSE,5.8,-,N/A,,Clear,160,2012-10-21 13:55:00
9:15 AM,62.6,46.4,55,29.91,10.0,South,8.1,-,N/A,,Clear,170,2012-10-21 14:15:00
9:35 AM,62.6,46.4,55,29.92,10.0,South,10.4,-,N/A,,Scattered Clouds,180,2012-10-21 14:35:00
9:55 AM,64.4,48.2,56,29.92,10.0,South,5.8,-,N/A,,Mostly Cloudy,170,2012-10-21 14:55:00
10:15 AM,66.2,48.2,52,29.92,10.0,South,6.9,-,N/A,,Mostly Cloudy,170,2012-10-21 15:15:00
10:35 AM,68.0,50.0,52,29.92,10.0,SSE,8.1,-,N/A,,Clear,160,2012-10-21 15:35:00
10:55 AM,69.8,51.8,53,29.92,10.0,South,6.9,-,N/A,,Scattered Clouds,180,2012-10-21 15:55:00
11:15 AM,71.6,53.6,53,29.92,10.0,South,9.2,-,N/A,,Mostly Cloudy,180,2012-10-21 16:15:00
11:35 AM,71.6,53.6,53,29.92,10.0,South,8.1,-,N/A,,Overcast,170,2012-10-21 16:35:00
12:15 PM,73.4,57.2,57,29.91,10.0,SW,10.4,-,N/A,,Overcast,220,2012-10-21 17:15:00
12:35 PM,75.2,57.2,53,29.91,10.0,South,9.2,-,N/A,,Mostly Cloudy,190,2012-10-21 17:35:00
12:55 PM,75.2,59.0,57,29.90,10.0,South,6.9,-,N/A,,Overcast,170,2012-10-21 17:55:00
1:15 PM,75.2,59.0,57,29.90,10.0,South,10.4,-,N/A,,Overcast,190,2012-10-21 18:15:00
1:35 PM,75.2,60.8,61,29.89,10.0,SSW,9.2,-,N/A,,Overcast,200,2012-10-21 18:35:00
1:55 PM,77.0,60.8,57,29.88,10.0,SSW,6.9,-,N/A,,Mostly Cloudy,200,2012-10-21 18:55:00
2:15 PM,77.0,60.8,57,29.87,10.0,SSE,8.1,-,N/A,,Scattered Clouds,150,2012-10-21 19:15:00
2:35 PM,77.0,60.8,57,29.87,10.0,SSE,8.1,-,N/A,,Overcast,150,2012-10-21 19:35:00
2:55 PM,77.0,60.8,57,29.86,10.0,SSE,6.9,-,N/A,,Overcast,160,2012-10-21 19:55:00
3:15 PM,77.0,62.6,61,29.86,10.0,SSE,6.9,-,N/A,,Overcast,160,2012-10-21 20:15:00
3:35 PM,78.8,62.6,57,29.86,10.0,SSE,11.5,-,N/A,,Overcast,150,2012-10-21 20:35:00
3:55 PM,77.0,62.6,61,29.86,10.0,South,10.4,-,N/A,,Overcast,190,2012-10-21 20:55:00
4:15 PM,77.0,62.6,61,29.87,10.0,South,9.2,-,N/A,,Overcast,180,2012-10-21 21:15:00
4:35 PM,77.0,62.6,61,29.87,10.0,South,10.4,-,N/A,,Overcast,180,2012-10-21 21:35:00
4:55 PM,77.0,62.6,61,29.87,10.0,SSE,6.9,-,N/A,,Overcast,160,2012-10-21 21:55:00
5:15 PM,77.0,62.6,61,29.87,10.0,South,4.6,-,N/A,,Overcast,170,2012-10-21 22:15:00
5:35 PM,75.2,62.6,65,29.87,10.0,South,8.1,-,N/A,,Overcast,180,2012-10-21 22:35:00
5:55 PM,75.2,62.6,65,29.87,10.0,SSE,6.9,-,N/A,,Overcast,150,2012-10-21 22:55:00
6:15 PM,75.2,60.8,61,29.86,10.0,South,8.1,-,N/A,,Scattered Clouds,170,2012-10-21 23:15:00
6:35 PM,75.2,60.8,61,29.86,10.0,SE,4.6,-,N/A,,Clear,140,2012-10-21 23:35:00
6:55 PM,73.4,60.8,65,29.86,10.0,SE,6.9,-,N/A,,Clear,140,2012-10-21 23:55:00
7:15 PM,73.4,60.8,65,29.86,10.0,SSE,5.8,-,N/A,,Clear,150,2012-10-22 00:15:00
7:35 PM,73.4,60.8,65,29.87,10.0,SSE,5.8,-,N/A,,Clear,150,2012-10-22 00:35:00
7:55 PM,71.6,60.8,69,29.87,10.0,SSE,4.6,-,N/A,,Clear,150,2012-10-22 00:55:00
8:15 PM,71.6,60.8,69,29.87,10.0,SSE,5.8,-,N/A,,Clear,160,2012-10-22 01:15:00
8:35 PM,71.6,60.8,69,29.88,10.0,South,6.9,-,N/A,,Clear,170,2012-10-22 01:35:00
8:55 PM,71.6,62.6,73,29.88,10.0,South,5.8,-,N/A,,Clear,180,2012-10-22 01:55:00
9:15 PM,71.6,62.6,73,29.89,10.0,South,5.8,-,N/A,,Scattered Clouds,190,2012-10-22 02:15:00
9:35 PM,71.6,62.6,73,29.90,10.0,South,8.1,-,N/A,,Mostly Cloudy,190,2012-10-22 02:35:00
9:55 PM,69.8,62.6,78,29.90,10.0,South,6.9,-,N/A,,Mostly Cloudy,190,2012-10-22 02:55:00
10:15 PM,69.8,62.6,78,29.90,10.0,South,6.9,-,N/A,,Clear,190,2012-10-22 03:15:00
10:35 PM,69.8,62.6,78,29.91,10.0,South,4.6,-,N/A,,Clear,180,2012-10-22 03:35:00
10:55 PM,69.8,62.6,78,29.91,10.0,South,4.6,-,N/A,,Clear,180,2012-10-22 03:55:00
11:15 PM,69.8,62.6,78,29.91,10.0,South,4.6,-,N/A,,Clear,180,2012-10-22 04:15:00
11:35 PM,68.0,62.6,83,29.91,10.0,South,5.8,-,N/A,,Scattered Clouds,170,2012-10-22 04:35:00
11:55 PM,68.0,62.6,83,29.91,10.0,SSE,3.5,-,N/A,,Mostly Cloudy,160,2012-10-22 04:55:00